Location: Waltman Observatory
(32.5145°N, 90.4450°W)
Time: 07:13:46
(UTC-06:00)

Amateur Radio Satellites - All Passes

Search period start: 01 February 2015 06:43
Search period end: 02 February 2015 06:43
Location: Waltman Observatory, 32.5145°N, 90.4450°W

Satellite Date Start Highest point End Downlink Frequencies (MHz)
Time Altitude Azimuth
CUBESAT XI-V 01 Feb 06:54:58 06:58:35 22° 266° (W) 07:02:06 437.345
YUBILEINY 01 Feb 07:31:43 07:39:57 45° 270° (W) 07:48:04 435.215
BRITE-PL 01 Feb 07:32:04 07:35:27 17° 90° (E) 07:38:58 437.365/2234.400
PHONESAT 2.4 01 Feb 07:43:47 07:47:20 61° 336° (NNW) 07:50:55 2401.200-2431.200
Cubesat XI-IV 01 Feb 07:59:25 08:01:16 11° 295° (WNW) 08:02:47 437.490
VERMONT LUNAR 01 Feb 08:04:06 08:07:14 30° 345° (NNW) 08:10:22 437.305
SEEDS 01 Feb 08:05:17 08:07:55 17° 93° (E) 08:10:41 437.485
RS-15 01 Feb 08:15:12 08:17:15 10° 344° (NNW) 08:18:53 29.354- 29.394
HO-68 01 Feb 08:23:19 08:30:05 45° 99° (E) 08:36:54 435.675
COMPASS 1 01 Feb 08:26:25 08:29:49 25° 95° (E) 08:33:17 437.405
SO-50 01 Feb 08:33:22 08:37:23 33° 112° (ESE) 08:41:34 436.795
DOVE 4 01 Feb 08:44:12 08:49:01 44° 97° (E) 08:53:35 437.250
ANTELSAT 01 Feb 08:46:39 08:48:34 13° 68° (ENE) 08:50:44 437.575/2403.000
GOMX 1 01 Feb 08:47:19 08:52:37 70° 100° (E) 08:57:36 467.674
AAUSAT CUBESAT 2 01 Feb 08:49:44 08:53:40 42° 98° (E) 08:57:37 437.432
CANX-2 01 Feb 08:50:05 08:54:19 86° 102° (ESE) 08:58:31 2200.000
TIGRISAT 01 Feb 08:51:54 08:54:17 14° 69° (ENE) 08:56:53 435.000
DX 1 01 Feb 08:55:26 08:56:48 12° 91° (E) 08:58:27 434.975-435.025
CUBEBUG 2 01 Feb 08:57:55 09:00:39 16° 92° (E) 09:03:31 437.445
FUNcube-1 01 Feb 09:02:53 09:04:12 11° 90° (E) 09:05:47 145.935
POLYITAN 1 01 Feb 09:06:21 09:06:59 10° 68° (ENE) 09:07:53 437.675
BRITE-PL 01 Feb 09:08:56 09:14:20 49° 286° (WNW) 09:19:23 437.365/2234.400
CUTE 1.7 + AOD 2 01 Feb 09:13:51 09:17:58 52° 284° (WNW) 09:22:03 437.475
POPSAT HIP 1 01 Feb 09:22:26 09:25:04 17° 70° (ENE) 09:27:53 437.405
DUCHIFAT 1 01 Feb 09:23:04 09:25:42 17° 70° (ENE) 09:28:30 145.980
PHONESAT 2.4 01 Feb 09:23:19 09:26:19 24° 352° (N) 09:29:20 2401.200-2431.200
Oscar 11 01 Feb 09:26:57 09:31:11 56° 100° (E) 09:35:23 145.826/435.025
UWE-3 01 Feb 09:29:53 09:33:51 33° 97° (E) 09:37:44 435.000/436.395/437.385
AISAT 01 Feb 09:35:25 09:37:15 13° 91° (E) 09:39:21 437.250
SEEDS 01 Feb 09:40:09 09:43:50 29° 287° (WNW) 09:47:26 437.485
VERMONT LUNAR 01 Feb 09:43:12 09:45:56 21° 2° (N) 09:48:42 437.305
CINEMA 3 01 Feb 09:43:36 09:48:20 74° 283° (WNW) 09:52:48 145.822/145.860
UNISAT 6 01 Feb 09:44:04 09:48:42 57° 75° (ENE) 09:53:19 437.425
NANOSAT C BR1 01 Feb 09:56:56 10:00:58 43° 74° (ENE) 10:05:03 145.865
VELOX 1 01 Feb 10:00:20 10:04:00 25° 96° (E) 10:07:43 145.980
DELFI C3 01 Feb 10:01:06 10:05:07 64° 284° (WNW) 10:09:06 145.870
COMPASS 1 01 Feb 10:02:21 10:05:26 20° 289° (WNW) 10:08:24 437.405
HUMSAT D 01 Feb 10:02:39 10:06:26 33° 97° (E) 10:10:12 437.325/437.525
UKube-1 01 Feb 10:04:06 10:08:28 81° 102° (ESE) 10:12:50 .
HO-68 01 Feb 10:11:33 10:17:35 29° 294° (WNW) 10:23:26 435.675
QB50P2 01 Feb 10:13:00 10:17:16 71° 76° (ENE) 10:21:34 145.880/145.840
SO-50 01 Feb 10:14:25 10:18:01 22° 309° (NW) 10:21:36 436.795
BUGSAT 1 01 Feb 10:15:18 10:19:16 53° 75° (ENE) 10:23:21 437.445
ANTELSAT 01 Feb 10:20:21 10:24:59 54° 260° (W) 10:29:35 437.575/2403.000
QB50P1 01 Feb 10:21:06 10:25:22 88° 87° (E) 10:29:41 145.935-145.965
DOVE 4 01 Feb 10:23:08 10:26:24 17° 292° (WNW) 10:29:23 437.250
BEESAT 2 01 Feb 10:23:10 10:27:09 44° 58° (ENE) 10:31:05 435.950
ZACube-1 01 Feb 10:25:49 10:30:09 60° 284° (WNW) 10:34:19 437.345
TIGRISAT 01 Feb 10:26:08 10:30:42 47° 261° (W) 10:35:14 435.000
AAUSAT CUBESAT 2 01 Feb 10:27:18 10:29:01 12° 291° (WNW) 10:30:30 437.432
GOMX 1 01 Feb 10:28:05 10:30:06 12° 295° (WNW) 10:31:46 467.674
DX 1 01 Feb 10:29:08 10:33:22 47° 286° (WNW) 10:37:35 434.975-435.025
RS-15 01 Feb 10:32:59 10:37:05 13° 22° (NNE) 10:41:47 29.354- 29.394
CUBEBUG 2 01 Feb 10:33:29 10:37:32 33° 287° (WNW) 10:41:24 437.445
BEESAT 3 01 Feb 10:33:40 10:37:48 70° 61° (ENE) 10:41:52 437.485
FUNcube-1 01 Feb 10:36:44 10:40:54 44° 285° (WNW) 10:44:56 145.935
AIST 2 01 Feb 10:37:03 10:40:35 25° 54° (NE) 10:44:08 435.215
POLYITAN 1 01 Feb 10:38:17 10:42:31 55° 260° (W) 10:46:45 437.675
50 SAT 01 Feb 10:42:46 10:46:48 81° 103° (ESE) 10:50:47 437.505
AIST 1 01 Feb 10:54:07 10:58:22 81° 276° (W) 11:02:39
POPSAT HIP 1 01 Feb 10:56:52 11:00:45 33° 263° (W) 11:04:37 437.405
DUCHIFAT 1 01 Feb 10:57:29 11:01:20 32° 263° (W) 11:05:11 145.980
PHONESAT 2.4 01 Feb 11:02:28 11:05:33 26° 10° (N) 11:08:39 2401.200-2431.200
UWE-3 01 Feb 11:07:15 11:10:10 17° 290° (WNW) 11:12:52 435.000/436.395/437.385
SPROUT 01 Feb 11:08:01 11:09:33 12° 91° (E) 11:11:22 437.525
AISAT 01 Feb 11:09:51 11:14:11 46° 286° (WNW) 11:18:28 437.250
VERMONT LUNAR 01 Feb 11:21:17 11:24:35 39° 19° (NNE) 11:27:55 437.305
ESTCUBE 1 01 Feb 11:23:24 11:27:57 80° 283° (WNW) 11:32:29 437.505/2401.250
UNISAT 6 01 Feb 11:24:28 11:25:53 11° 270° (W) 11:26:58 437.425
Oscar 19 01 Feb 11:24:33 11:25:17 10° 65° (ENE) 11:26:23 437.125/150
PCSat 01 Feb 11:28:31 11:29:08 10° 46° (NE) 11:30:06 145.827
TISAT 1 01 Feb 11:31:43 11:35:05 23° 95° (E) 11:38:33 437.305
CUBEBUG 1 01 Feb 11:34:01 11:38:26 63° 284° (WNW) 11:42:49 437.445
NANOSAT C BR1 01 Feb 11:35:19 11:37:07 12° 269° (W) 11:38:40 145.865
VELOX 1 01 Feb 11:36:52 11:40:30 24° 289° (WNW) 11:44:01 145.980
GONETS M04 01 Feb 11:38:08 11:46:20 46° 77° (ENE) 11:54:37
HUMSAT D 01 Feb 11:39:27 11:41:59 15° 290° (WNW) 11:44:21 437.325/437.525
BEESAT 2 01 Feb 12:03:18 12:05:01 12° 251° (WSW) 12:06:29 435.950
AIST 2 01 Feb 12:15:42 12:19:07 23° 249° (WSW) 12:22:23 435.215
PHONESAT 2.4 01 Feb 12:40:49 12:44:27 77° 24° (NNE) 12:48:06 2401.200-2431.200
SPROUT 01 Feb 12:41:48 12:45:57 44° 285° (WNW) 12:50:03 437.525
RS-15 01 Feb 12:43:02 12:53:44 45° 51° (NE) 13:05:01 29.354- 29.394
Oscar 19 01 Feb 12:58:53 13:04:05 78° 257° (WSW) 13:09:18 437.125/150
VERMONT LUNAR 01 Feb 12:59:24 13:02:41 38° 213° (SSW) 13:05:59 437.305
Gurwin Techsat 1B 01 Feb 13:02:07 13:06:16 24° 70° (ENE) 13:10:32 435.225
TISAT 1 01 Feb 13:07:25 13:10:51 23° 288° (WNW) 13:14:10 437.305
PCSat 01 Feb 13:08:04 13:13:30 82° 64° (ENE) 13:18:55 145.827
AO-7 01 Feb 13:21:31 13:24:07 12° 55° (NE) 13:27:21 29.400- 29.500
ITAMSAT 1 01 Feb 13:22:56 13:28:00 60° 75° (ENE) 13:33:07 435.822/435.867
SWISSCUBE 01 Feb 13:31:45 13:36:33 83° 102° (ESE) 13:41:22 437.505
GONETS M04 01 Feb 13:35:29 13:42:56 32° 273° (W) 13:50:09
BEESAT 01 Feb 13:46:52 13:51:39 73° 284° (WNW) 13:56:25 436.000
ITUPSAT 1 01 Feb 13:53:03 13:57:48 64° 285° (WNW) 14:02:33 437.325
HORYU 2 01 Feb 13:56:21 13:59:48 23° 71° (ENE) 14:03:21 437.375
PHONESAT 2.4 01 Feb 14:20:17 14:22:45 17° 218° (SW) 14:25:09 2401.200-2431.200
JUGNU 01 Feb 14:29:35 14:32:24 14° 165° (SSE) 14:35:20 437.505
STARS 01 Feb 14:32:44 14:36:54 40° 98° (E) 14:41:04 437.465
Gurwin Techsat 1B 01 Feb 14:41:18 14:46:06 33° 263° (W) 14:50:51 435.225
DANDE 01 Feb 14:42:42 14:48:16 47° 75° (ENE) 14:52:24 436.750
KKS-1 01 Feb 14:46:56 14:51:27 83° 284° (WNW) 14:55:54 437.445
CUSAT 1 01 Feb 14:52:39 14:57:59 78° 81° (E) 15:01:53 437.405
RS-15 01 Feb 14:55:24 15:06:21 49° 250° (WSW) 15:17:31 29.354- 29.394
ITAMSAT 1 01 Feb 15:05:42 15:07:59 12° 269° (W) 15:09:55 435.822/435.867
AO-7 01 Feb 15:07:25 15:15:41 70° 71° (ENE) 15:24:01 29.400- 29.500
O/OREOS (USA 219) 01 Feb 15:21:17 15:25:46 78° 290° (WNW) 15:30:17 437.305
JAS-2 01 Feb 15:28:32 15:33:29 36° 73° (ENE) 15:38:15 435.910
HORYU 2 01 Feb 15:32:33 15:36:22 26° 264° (W) 15:40:07 437.375
M-CUBED/EXP-1 PRIME 01 Feb 15:41:26 15:44:49 84° 288° (WNW) 15:48:24 437.505
STARS 01 Feb 16:10:32 16:13:05 15° 291° (WNW) 16:15:26 437.465
AUBIESAT-1 01 Feb 16:11:48 16:14:54 33° 289° (WNW) 16:18:08 437.475
JUGNU 01 Feb 16:16:24 16:20:49 22° 174° (S) 16:25:17 437.505
CUTE-I 01 Feb 16:16:27 16:18:26 12° 66° (ENE) 16:20:45 437.470
DANDE 01 Feb 16:28:38 16:30:44 12° 279° (W) 16:32:20 436.750
MOZHAYETS 4 01 Feb 16:52:01 16:56:36 86° 100° (E) 17:01:11
AO-7 01 Feb 17:03:06 17:09:12 21° 267° (W) 17:14:50 29.400- 29.500
SRMSAT 01 Feb 17:03:53 17:08:01 19° 170° (S) 17:12:13 437.500
SO-50 01 Feb 17:10:48 17:12:33 12° 45° (NE) 17:14:32 436.795
JAS-2 01 Feb 17:14:42 17:18:47 20° 265° (W) 17:22:30 435.910
PRISM 01 Feb 17:25:40 17:27:52 14° 93° (E) 17:30:18 437.425
Cubesat XI-IV 01 Feb 17:33:49 17:39:06 79° 77° (ENE) 17:44:28 437.490
CUTE-I 01 Feb 17:52:43 17:58:00 69° 258° (WSW) 18:03:20 437.470
JUGNU 01 Feb 18:04:43 18:09:16 23° 184° (S) 18:13:50 437.505
YUBILEINY 01 Feb 18:30:14 18:38:12 44° 90° (E) 18:46:21 435.215
BRITE-PL 01 Feb 18:39:29 18:41:23 12° 65° (ENE) 18:43:40 437.365/2234.400
HO-68 01 Feb 18:48:33 18:53:30 22° 64° (ENE) 18:58:45 435.675
SO-50 01 Feb 18:48:51 18:53:48 82° 241° (WSW) 18:58:42 436.795
SRMSAT 01 Feb 18:51:55 18:56:38 24° 180° (S) 19:01:22 437.500
STRAND 1 01 Feb 18:54:34 18:59:45 79° 104° (ESE) 19:04:54 437.568
CUBESAT XI-V 01 Feb 18:55:07 18:59:46 62° 284° (WNW) 19:04:25 437.345
PRISM 01 Feb 18:59:45 19:03:33 34° 287° (WNW) 19:07:18 437.425
COMPASS 1 01 Feb 19:16:23 19:17:01 10° 69° (ENE) 19:17:56 437.405
AAUSAT CUBESAT 2 01 Feb 19:37:36 19:40:16 17° 71° (ENE) 19:43:05 437.432
CANX-2 01 Feb 19:38:49 19:42:40 33° 74° (ENE) 19:46:33 2200.000
DOVE 4 01 Feb 19:45:00 19:49:17 29° 71° (ENE) 19:53:48 437.250
GOMX 1 01 Feb 19:50:11 19:55:00 46° 74° (ENE) 20:00:09 467.674
JUGNU 01 Feb 19:54:16 19:57:43 16° 193° (SSW) 20:01:05 437.505
CUTE 1.7 + AOD 2 01 Feb 20:02:00 20:06:12 59° 76° (ENE) 20:10:26 437.475
ISS 01 Feb 20:03:02 20:06:14 54° 318° (NW) 20:09:27 145.825
BRITE-PL 01 Feb 20:14:12 20:19:14 70° 259° (W) 20:24:41 437.365/2234.400
Oscar 11 01 Feb 20:17:49 20:21:19 25° 72° (ENE) 20:24:55 145.826/435.025
UWE-3 01 Feb 20:23:19 20:26:23 18° 70° (ENE) 20:29:39 435.000/436.395/437.385
SEEDS 01 Feb 20:27:09 20:31:25 79° 258° (WSW) 20:35:40 437.485
YUBILEINY 01 Feb 20:27:32 20:35:13 33° 286° (WNW) 20:42:43 435.215
HO-68 01 Feb 20:33:41 20:40:45 62° 258° (WSW) 20:47:49 435.675
STRAND 1 01 Feb 20:37:47 20:38:23 10° 295° (WNW) 20:38:36 437.568
CINEMA 3 01 Feb 20:39:58 20:44:49 61° 75° (ENE) 20:49:48 145.822/145.860
SRMSAT 01 Feb 20:41:03 20:45:15 20° 190° (S) 20:49:26 437.500
DELFI C3 01 Feb 20:44:51 20:48:40 40° 75° (ENE) 20:52:30 145.870
COMPASS 1 01 Feb 20:48:15 20:52:22 51° 261° (W) 20:56:29 437.405
HUMSAT D 01 Feb 20:51:37 20:53:59 15° 70° (ENE) 20:56:33 437.325/437.525
UKube-1 01 Feb 20:54:50 20:58:48 37° 73° (ENE) 21:02:49 .
VELOX 1 01 Feb 20:55:23 20:57:26 13° 68° (ENE) 20:59:43 145.980
AIST 1 01 Feb 21:07:19 21:09:57 16° 74° (ENE) 21:12:46
AAUSAT CUBESAT 2 01 Feb 21:12:00 21:15:45 30° 263° (W) 21:19:26 437.432
CANX-2 01 Feb 21:16:03 21:18:44 16° 267° (W) 21:21:14 2200.000
ZACube-1 01 Feb 21:16:45 21:21:17 60° 76° (ENE) 21:25:50 437.345
DX 1 01 Feb 21:19:56 21:24:16 81° 77° (ENE) 21:28:39 434.975-435.025
DOVE 4 01 Feb 21:22:40 21:26:59 27° 266° (W) 21:31:23 437.250
50 SAT 01 Feb 21:26:02 21:29:28 27° 73° (ENE) 21:32:59 437.505
CUBEBUG 2 01 Feb 21:26:07 21:30:52 73° 260° (W) 21:35:40 437.445
FUNcube-1 01 Feb 21:27:17 21:31:52 79° 78° (ENE) 21:36:30 145.935
GOMX 1 01 Feb 21:30:02 21:33:27 17° 270° (W) 21:36:45 467.674
UNISAT 6 01 Feb 21:42:28 21:45:06 16° 92° (E) 21:47:53 437.425
Oscar 11 01 Feb 21:54:02 21:57:28 22° 265° (W) 22:00:48 145.826/435.025
UWE-3 01 Feb 21:58:21 22:02:41 37° 263° (W) 22:07:01 435.000/436.395/437.385
AISAT 01 Feb 22:03:02 22:07:29 90° 75° (ENE) 22:11:59 437.250
BUGSAT 1 01 Feb 22:04:28 22:05:59 12° 91° (E) 22:07:45 437.445
QB50P2 01 Feb 22:04:28 22:07:10 17° 93° (E) 22:10:02 145.880/145.840
QB50P1 01 Feb 22:12:00 22:15:10 21° 94° (E) 22:18:26 145.935-145.965
ANTELSAT 01 Feb 22:17:33 22:21:43 44° 98° (E) 22:25:50 437.575/2403.000
ESTCUBE 1 01 Feb 22:18:36 22:22:57 53° 75° (ENE) 22:27:20 437.505/2401.250
CINEMA 3 01 Feb 22:20:36 22:22:30 12° 271° (W) 22:24:04 145.822/145.860
DELFI C3 01 Feb 22:22:36 22:24:09 12° 269° (W) 22:25:26 145.870
TIGRISAT 01 Feb 22:22:52 22:27:08 50° 100° (E) 22:31:17 435.000
TISAT 1 01 Feb 22:22:53 22:23:13 10° 68° (ENE) 22:23:51 437.305
HUMSAT D 01 Feb 22:25:26 22:29:30 38° 262° (W) 22:33:33 437.325/437.525
CUBEBUG 1 01 Feb 22:25:39 22:29:54 59° 76° (ENE) 22:34:14 437.445
POLYITAN 1 01 Feb 22:28:55 22:32:49 34° 97° (E) 22:36:43 437.675
VELOX 1 01 Feb 22:29:27 22:33:41 44° 261° (W) 22:37:57 145.980
UKube-1 01 Feb 22:32:41 22:35:09 14° 267° (W) 22:37:25 .
SRMSAT 01 Feb 22:33:31 22:33:50 10° 198° (SSW) 22:34:00 437.500
AIST 1 01 Feb 22:43:49 22:47:44 32° 268° (W) 22:51:36
POPSAT HIP 1 01 Feb 22:46:30 22:50:45 56° 100° (E) 22:54:57 437.405
DUCHIFAT 1 01 Feb 22:46:46 22:50:59 55° 100° (E) 22:55:10 145.980
50 SAT 01 Feb 23:01:39 23:04:36 18° 266° (W) 23:07:25 437.505
UNISAT 6 01 Feb 23:18:06 23:22:04 33° 287° (WNW) 23:25:52 437.425
NANOSAT C BR1 01 Feb 23:22:22 23:26:32 50° 285° (WNW) 23:30:40 145.865
SPROUT 01 Feb 23:31:05 23:35:23 77° 78° (ENE) 23:39:45 437.525
BUGSAT 1 01 Feb 23:37:40 23:41:45 43° 286° (WNW) 23:45:47 437.445
QB50P2 01 Feb 23:39:22 23:43:12 31° 287° (WNW) 23:46:56 145.880/145.840
QB50P1 01 Feb 23:47:28 23:51:03 26° 288° (WNW) 23:54:32 145.935-145.965
TISAT 1 01 Feb 23:54:29 23:58:38 54° 260° (W) 00:02:49 437.305
ANTELSAT 01 Feb 23:56:08 23:58:11 13° 292° (WNW) 23:59:59 437.575/2403.000
ESTCUBE 1 01 Feb 23:59:09 00:00:14 10° 270° (W) 00:00:59 437.505/2401.250
TIGRISAT 02 Feb 00:01:58 00:03:29 11° 292° (WNW) 00:04:44 435.000
POLYITAN 1 02 Feb 00:05:47 00:08:31 16° 290° (WNW) 00:11:05 437.675
BEESAT 2 02 Feb 00:14:07 00:17:29 26° 112° (ESE) 00:20:59 435.950
BEESAT 3 02 Feb 00:23:35 00:27:22 39° 114° (ESE) 00:31:15 437.485
POPSAT HIP 1 02 Feb 00:25:47 00:26:13 10° 292° (WNW) 00:26:23 437.405
DUCHIFAT 1 02 Feb 00:25:56 00:26:25 10° 292° (WNW) 00:26:36 145.980
AIST 2 02 Feb 00:32:05 00:34:35 16° 110° (ESE) 00:37:17 435.215
GONETS M04 02 Feb 00:32:51 00:41:25 62° 92° (E) 00:49:59
SWISSCUBE 02 Feb 00:33:53 00:38:31 56° 75° (ENE) 00:43:12 437.505
BEESAT 02 Feb 00:48:46 00:53:29 76° 77° (ENE) 00:58:16 436.000
ITUPSAT 1 02 Feb 00:55:14 00:59:59 88° 76° (ENE) 01:04:46 437.325
Oscar 19 02 Feb 01:15:17 01:20:20 55° 100° (E) 01:25:20 437.125/150
Gurwin Techsat 1B 02 Feb 01:24:03 01:26:27 14° 91° (E) 01:29:10 435.225
STARS 02 Feb 01:26:07 01:29:24 21° 70° (ENE) 01:32:48 437.465
O/OREOS (USA 219) 02 Feb 01:35:46 01:40:24 88° 252° (WSW) 01:44:59 437.305
KKS-1 02 Feb 01:40:36 01:44:54 49° 75° (ENE) 01:49:16 437.445
ITAMSAT 1 02 Feb 01:40:49 01:45:23 31° 97° (E) 01:50:02 435.822/435.867
BEESAT 2 02 Feb 01:52:25 01:55:42 22° 307° (NW) 01:58:55 435.950
BEESAT 3 02 Feb 02:03:10 02:05:44 15° 310° (NW) 02:08:08 437.485
PCSat 02 Feb 02:03:29 02:07:18 21° 107° (ESE) 02:11:19 145.827
DANDE 02 Feb 02:05:59 02:10:14 16° 84° (E) 02:15:12 436.750
AIST 2 02 Feb 02:09:01 02:12:56 36° 303° (WNW) 02:16:54 435.215
CUSAT 1 02 Feb 02:11:34 02:17:09 21° 87° (E) 02:23:14 437.405
SWISSCUBE 02 Feb 02:15:13 02:16:49 11° 270° (W) 02:18:05 437.505
M-CUBED/EXP-1 PRIME 02 Feb 02:26:26 02:30:23 59° 73° (ENE) 02:34:04 437.505
GONETS M04 02 Feb 02:32:04 02:38:55 24° 290° (WNW) 02:45:22
ISS 02 Feb 02:34:55 02:37:20 19° 34° (NE) 02:39:48 145.825
AUBIESAT-1 02 Feb 02:56:06 03:00:04 60° 254° (WSW) 03:03:43 437.475
Oscar 19 02 Feb 02:56:26 02:59:16 15° 293° (WNW) 03:01:51 437.125/150
RS-15 02 Feb 03:01:27 03:11:19 42° 109° (ESE) 03:21:20 29.354- 29.394
Gurwin Techsat 1B 02 Feb 03:01:38 03:06:52 57° 286° (WNW) 03:12:03 435.225
STARS 02 Feb 03:01:54 03:05:45 27° 264° (W) 03:09:32 437.465
AO-7 02 Feb 03:15:05 03:22:02 30° 96° (E) 03:29:10 29.400- 29.500
KKS-1 02 Feb 03:20:15 03:21:55 11° 269° (W) 03:23:16 437.445
ITAMSAT 1 02 Feb 03:20:30 03:24:47 26° 290° (WNW) 03:28:57 435.822/435.867
HORYU 2 02 Feb 03:27:47 03:32:15 86° 105° (ESE) 03:36:40 437.375
DANDE 02 Feb 03:44:32 03:52:47 87° 98° (E) 04:01:29 436.750
PCSat 02 Feb 03:45:20 03:50:27 42° 300° (WNW) 03:55:35 145.827
MOZHAYETS 4 02 Feb 03:49:30 03:53:52 46° 74° (ENE) 03:58:16
CUSAT 1 02 Feb 03:51:21 03:59:35 74° 280° (W) 04:07:57 437.405
ISS 02 Feb 04:10:53 04:13:53 33° 229° (SW) 04:16:52 145.825
JAS-2 02 Feb 04:24:46 04:30:41 55° 101° (E) 04:37:24 435.910
YUBILEINY 02 Feb 04:47:44 04:52:33 16° 66° (ENE) 04:57:59 435.215
AO-7 02 Feb 05:07:08 05:15:06 50° 292° (WNW) 05:22:56 29.400- 29.500
RS-15 02 Feb 05:13:07 05:23:34 47° 307° (NW) 05:34:00 29.354- 29.394
MOZHAYETS 4 02 Feb 05:29:13 05:31:24 13° 269° (W) 05:33:19
PHONESAT 2.4 02 Feb 05:30:27 05:32:57 18° 143° (SE) 05:35:31 2401.200-2431.200
DANDE 02 Feb 05:31:35 05:37:22 19° 295° (WNW) 05:42:44 436.750
CUSAT 1 02 Feb 05:40:03 05:44:03 13° 297° (WNW) 05:47:19 437.405
VERMONT LUNAR 02 Feb 05:43:00 05:46:19 45° 148° (SSE) 05:49:38 437.305
PRISM 02 Feb 05:45:22 05:49:28 89° 257° (WSW) 05:53:36 437.425
CUBESAT XI-V 02 Feb 05:53:50 05:58:24 75° 77° (ENE) 06:03:01 437.345
Cubesat XI-IV 02 Feb 05:55:57 06:01:06 47° 99° (E) 06:06:17 437.490
STRAND 1 02 Feb 06:05:52 06:10:54 70° 76° (ENE) 06:16:01 437.568
JAS-2 02 Feb 06:11:16 06:15:34 20° 290° (WNW) 06:19:57 435.910
CUTE-I 02 Feb 06:14:30 06:19:52 72° 101° (E) 06:25:15 437.470
